Regional Weather Roundup
Issued by NWS

Home | Current Version | Previous Version | Graphics & Text | Print | Product List | Glossary On
Versions: 1 2 3 4 5 6 7 8 9 10 11 12 13 14 15 16 17 18 19 20 21 22 23 24 25 26 27
000
ASUS45 KSLC 241910
RWRUT

UTAH REGIONAL WEATHER ROUNDUP
NATIONAL WEATHER SERVICE SALT LAKE CITY UT
100 PM MDT MON JUL 24 2017

UTZ001>011-023>025-242000-

NORTHERN UTAH

CITY           SKY/WX    TMP DP  RH WIND       PRES   REMARKS
BRIGHAM CITY   PTSUNNY   88  41  19 S3        30.03S
HILL AFB       PTSUNNY   86  47  26 NE3       30.06F
LOGAN          MOSUNNY   89  51  27 S8        30.03F
OGDEN          PTSUNNY   89  45  21 VRB7      30.02F
SALT LAKE CITY PTSUNNY   92  45  19 SW5       30.00F
TOOELE VALLEY  SUNNY     88  46  23 N10       30.02S
WENDOVER       SUNNY     93  45  19 SE12      29.99F
HEBER CITY     PTSUNNY   81  46  30 CALM      30.12F
WEST JORDAN    MOSUNNY   90  58  34 SE9       30.05S

$$

UTZ011>015-024>027-242000-

CENTRAL/NORTHEAST UTAH

CITY           SKY/WX    TMP DP  RH WIND       PRES   REMARKS
PROVO AIRPORT  CLOUDY    88  54  31 SE5       30.05F
MOAB/CANYONLAN SUNNY     92  52  25 E5        30.02F
DELTA          MOSUNNY   90  43  19 SE13      30.06F
PRICE          MOSUNNY   87  48  25 S7        30.15F
RICHFIELD      SUNNY     84  46  26 NE6       30.12F
ROOSEVELT      CLOUDY    90  43  19 SW3       30.11S
VERNAL         SUNNY     90  44  20 VRB5      30.08F

$$

UTZ013>016-019>022-027-242000-

SOUTHERN UTAH

CITY           SKY/WX    TMP DP  RH WIND       PRES   REMARKS
BRYCE CANYON   MOSUNNY   74  53  48 S8        30.30F
CEDAR CITY     MOSUNNY   87  47  24 W8G17     30.11F
MILFORD        MOSUNNY   88  48  25 VRB3      30.06F
ST GEORGE      MOCLDY    92  55  28 CALM      29.94F HX  90
HANKSVILLE     PTSUNNY   91  52  25 SE6       30.05F
KANAB          MOSUNNY   82  55  39 E3        30.14F
BLANDING       CLOUDY    80  54  40 S5        30.27F

$$

REGIONAL REPORTS     COLORADO/ARIZONA

CITY           SKY/WX    TMP DP  RH WIND       PRES   REMARKS
CRAIG, CO      SUNNY     88  37  16 NW7       30.16F
GRAND JUNCTION SUNNY     90  51  26 W9G18     30.07F
RIFLE, CO      SUNNY     89  45  21 NW9       30.11F
MONTROSE, CO   CLOUDY    88  49  25 N9        30.15F
CORTEZ, CO     MOSUNNY   83  55  38 CALM      30.19F
COLORADO CITY    N/A     88  54  31 CALM      30.13F
PAGE, AZ       CLOUDY    83  58  42 MISG      30.07F
GRAND CANYON   CLOUDY    73  55  53 S10       30.26F
KINGMAN, AZ    CLOUDY    84  62  47 SW16      30.05S
FLAGSTAFF, AZ  CLOUDY    64  57  78 CALM      30.30S

$$

REGIONAL REPORTS    NEVADA/IDAHO/WYOMING

CITY           SKY/WX    TMP DP  RH WIND       PRES   REMARKS
LAS VEGAS, NV  PTSUNNY   97  62  31 VRB7      29.89F HX  98
ELY, NY          N/A    N/A N/A N/A MISG      30.14F
ELKO, NV       PTSUNNY   90  41  18 SW9       30.05F
POCATELLO, ID  SUNNY     89  51  27 NW15      30.02S
BURLEY, ID     MOSUNNY   90  42  18 VRB5      29.98F
FORT BRIDGER,  CLOUDY    82  36  19 SW7       30.26F
EVANSTON, WY   CLOUDY    81  39  22 VRB5      30.24F
ROCK SPRINGS,  SUNNY     82  34  17 W7        30.21F
KEMMERER, WY     N/A     77  36  22 W3        30.25S

$$




USA.gov is the U.S. government's official web portal to all federal, state and local government web resources and services.